EN

Hourly Weather Laderevo

Today, 28 July, Wednesday

Time Temperature Precipitation Wind Pressure Humidity
00:00 +19°C° 0 mm 2 mps 744 mmHg 81%
01:00 +18°C° 0 mm 2 mps 744 mmHg 82%
02:00 +19°C° 0 mm 1 mps 744 mmHg 82%
03:00 +19°C° 0.1 mm 1 mps 743 mmHg 81%
04:00 +19°C° 0.1 mm 1 mps 743 mmHg 81%
05:00 +18°C° 0.1 mm 2 mps 743 mmHg 80%
06:00 +20°C° 0 mm 2 mps 743 mmHg 75%
07:00 +21°C° 0 mm 2 mps 743 mmHg 70%
08:00 +24°C° 0 mm 2 mps 743 mmHg 66%
09:00 +24°C° 0.3 mm 3 mps 743 mmHg 68%
10:00 +22°C° 0.3 mm 4 mps 743 mmHg 70%
11:00 +22°C° 0.3 mm 6 mps 743 mmHg 72%
12:00 +21°C° 0.5 mm 5 mps 742 mmHg 77%
13:00 +20°C° 0.5 mm 4 mps 742 mmHg 81%
14:00 +18°C° 0.5 mm 4 mps 742 mmHg 85%
15:00 +18°C° 0.1 mm 4 mps 741 mmHg 85%
16:00 +18°C° 0.1 mm 3 mps 741 mmHg 85%
17:00 +18°C° 0.1 mm 3 mps 740 mmHg 85%
18:00 +18°C° 0.1 mm 3 mps 740 mmHg 86%
19:00 +18°C° 0.1 mm 3 mps 740 mmHg 88%
20:00 +18°C° 0.1 mm 3 mps 739 mmHg 89%
21:00 +17°C° 0.1 mm 3 mps 739 mmHg 91%
22:00 +17°C° 0.1 mm 3 mps 738 mmHg 92%
23:00 +17°C° 0.1 mm 4 mps 738 mmHg 94%

Tomorrow, 29 July, Thursday

Time Temperature Precipitation Wind Pressure Humidity
00:00 +17°C° 0 mm 4 mps 738 mmHg 95%
01:00 +17°C° 0 mm 4 mps 738 mmHg 96%
02:00 +17°C° 0 mm 4 mps 737 mmHg 97%
03:00 +17°C° 0 mm 4 mps 737 mmHg 97%
04:00 +18°C° 0 mm 4 mps 737 mmHg 96%
05:00 +18°C° 0 mm 4 mps 737 mmHg 95%
06:00 +19°C° 0 mm 4 mps 737 mmHg 91%
07:00 +20°C° 0 mm 4 mps 737 mmHg 86%
08:00 +20°C° 0 mm 4 mps 737 mmHg 81%
09:00 +22°C° 0 mm 4 mps 737 mmHg 72%
10:00 +26°C° 0 mm 4 mps 737 mmHg 63%
11:00 +28°C° 0 mm 4 mps 737 mmHg 54%
12:00 +28°C° 0 mm 5 mps 737 mmHg 50%
13:00 +29°C° 0 mm 5 mps 737 mmHg 46%
14:00 +30°C° 0 mm 5 mps 737 mmHg 42%
15:00 +29°C° 0 mm 4 mps 737 mmHg 48%
16:00 +28°C° 0 mm 3 mps 736 mmHg 54%
17:00 +27°C° 0 mm 1 mps 736 mmHg 59%
18:00 +26°C° 0 mm 1 mps 736 mmHg 60%
19:00 +25°C° 0 mm 1 mps 736 mmHg 61%
20:00 +24°C° 0 mm 1 mps 736 mmHg 62%
21:00 +24°C° 0 mm 1 mps 736 mmHg 64%
22:00 +23°C° 0 mm 1 mps 736 mmHg 66%
23:00 +21°C° 0 mm 2 mps 736 mmHg 68%

Day after tomorrow, 30 July, Friday

Time Temperature Precipitation Wind Pressure Humidity
00:00 +21°C° 0.1 mm 2 mps 736 mmHg 73%
01:00 +20°C° 0.1 mm 2 mps 736 mmHg 77%
02:00 +20°C° 0.1 mm 3 mps 736 mmHg 81%
03:00 +19°C° 0.6 mm 2 mps 736 mmHg 86%
04:00 +19°C° 0.6 mm 2 mps 736 mmHg 91%
05:00 +19°C° 0.6 mm 1 mps 736 mmHg 96%
06:00 +19°C° 0.9 mm 2 mps 736 mmHg 93%
07:00 +20°C° 0.9 mm 2 mps 736 mmHg 90%
08:00 +21°C° 0.9 mm 2 mps 736 mmHg 87%
09:00 +22°C° 0.1 mm 3 mps 736 mmHg 83%
10:00 +24°C° 0.1 mm 3 mps 736 mmHg 80%
11:00 +24°C° 0.1 mm 3 mps 736 mmHg 76%
12:00 +25°C° 0.2 mm 4 mps 736 mmHg 72%
13:00 +26°C° 0.2 mm 4 mps 736 mmHg 68%
14:00 +27°C° 0.2 mm 5 mps 736 mmHg 64%
15:00 +26°C° 0.1 mm 4 mps 736 mmHg 64%
16:00 +26°C° 0.1 mm 3 mps 736 mmHg 63%
17:00 +26°C° 0.1 mm 3 mps 736 mmHg 62%
18:00 +25°C° 0 mm 3 mps 736 mmHg 65%
19:00 +22°C° 0 mm 3 mps 736 mmHg 67%
20:00 +21°C° 0 mm 3 mps 736 mmHg 69%
21:00 +20°C° 0 mm 3 mps 736 mmHg 70%
22:00 +20°C° 0 mm 3 mps 736 mmHg 70%
23:00 +19°C° 0 mm 2 mps 737 mmHg 71%

31 July, Saturday

Time Temperature Precipitation Wind Pressure Humidity
00:00 +19°C° 0 mm 2 mps 737 mmHg 73%
01:00 +18°C° 0 mm 2 mps 737 mmHg 75%
02:00 +18°C° 0 mm 2 mps 737 mmHg 77%
03:00 +18°C° 0 mm 3 mps 737 mmHg 77%
04:00 +18°C° 0 mm 3 mps 736 mmHg 77%
05:00 +18°C° 0 mm 3 mps 736 mmHg 78%
06:00 +19°C° 0 mm 4 mps 737 mmHg 73%
07:00 +20°C° 0 mm 4 mps 737 mmHg 68%
08:00 +21°C° 0 mm 4 mps 737 mmHg 63%
09:00 +23°C° 0 mm 5 mps 737 mmHg 56%
10:00 +26°C° 0 mm 6 mps 737 mmHg 50%
11:00 +28°C° 0 mm 7 mps 737 mmHg 43%
12:00 +28°C° 0 mm 7 mps 737 mmHg 41%
13:00 +29°C° 0 mm 7 mps 737 mmHg 39%
14:00 +29°C° 0 mm 7 mps 737 mmHg 37%
15:00 +28°C° 0 mm 6 mps 737 mmHg 40%
16:00 +28°C° 0 mm 6 mps 737 mmHg 43%
17:00 +27°C° 0 mm 5 mps 737 mmHg 45%
18:00 +25°C° 0 mm 4 mps 737 mmHg 51%
19:00 +22°C° 0 mm 3 mps 737 mmHg 57%
20:00 +20°C° 0 mm 2 mps 737 mmHg 63%
21:00 +19°C° 0 mm 2 mps 738 mmHg 65%
22:00 +19°C° 0 mm 2 mps 738 mmHg 66%
23:00 +18°C° 0 mm 2 mps 738 mmHg 67%

1 August, Sunday

Time Temperature Precipitation Wind Pressure Humidity
00:00 +18°C° 0 mm 2 mps 738 mmHg 68%
01:00 +18°C° 0 mm 2 mps 738 mmHg 70%
02:00 +18°C° 0 mm 3 mps 738 mmHg 71%
03:00 +18°C° 0 mm 3 mps 737 mmHg 72%
04:00 +18°C° 0 mm 3 mps 737 mmHg 74%
05:00 +19°C° 0 mm 3 mps 737 mmHg 76%
06:00 +21°C° 0 mm 4 mps 737 mmHg 68%
07:00 +23°C° 0 mm 5 mps 737 mmHg 60%
08:00 +26°C° 0 mm 6 mps 736 mmHg 52%
09:00 +28°C° 0 mm 7 mps 736 mmHg 49%
10:00 +29°C° 0 mm 7 mps 736 mmHg 45%
11:00 +31°C° 0 mm 8 mps 736 mmHg 41%
12:00 +30°C° 0 mm 7 mps 736 mmHg 44%
13:00 +30°C° 0 mm 7 mps 736 mmHg 47%
14:00 +29°C° 0 mm 7 mps 736 mmHg 49%
15:00 +28°C° 0 mm 6 mps 737 mmHg 52%
16:00 +28°C° 0 mm 6 mps 737 mmHg 55%
17:00 +27°C° 0 mm 5 mps 737 mmHg 58%
18:00 +25°C° 0 mm 4 mps 737 mmHg 65%
19:00 +22°C° 0 mm 3 mps 738 mmHg 72%
20:00 +20°C° 0 mm 2 mps 738 mmHg 80%
21:00 +19°C° 0 mm 2 mps 738 mmHg 82%
22:00 +19°C° 0 mm 2 mps 738 mmHg 84%
23:00 +18°C° 0 mm 2 mps 738 mmHg 86%

2 August, Monday

Time Temperature Precipitation Wind Pressure Humidity
00:00 +18°C° 0 mm 1 mps 738 mmHg 85%
01:00 +18°C° 0 mm 1 mps 738 mmHg 85%
02:00 +16°C° 0 mm 1 mps 738 mmHg 85%
03:00 +18°C° 0 mm 1 mps 738 mmHg 83%
04:00 +16°C° 0 mm 0 mps 738 mmHg 81%
05:00 +16°C° 0 mm 0 mps 738 mmHg 80%
06:00 +21°C° 0 mm 1 mps 738 mmHg 72%
07:00 +23°C° 0 mm 1 mps 738 mmHg 64%
08:00 +25°C° 0 mm 2 mps 738 mmHg 56%
09:00 +26°C° 0 mm 2 mps 738 mmHg 53%
10:00 +27°C° 0 mm 3 mps 737 mmHg 50%
11:00 +29°C° 0 mm 3 mps 737 mmHg 47%
12:00 +29°C° 0 mm 3 mps 737 mmHg 45%
13:00 +30°C° 0 mm 3 mps 736 mmHg 44%
14:00 +31°C° 0 mm 3 mps 736 mmHg 42%
15:00 +28°C° 2.3 mm 4 mps 735 mmHg 56%
16:00 +26°C° 2.3 mm 4 mps 735 mmHg 71%
17:00 +22°C° 2.3 mm 4 mps 735 mmHg 85%
18:00 +21°C° 0.9 mm 3 mps 734 mmHg 87%
19:00 +21°C° 0.9 mm 3 mps 734 mmHg 89%
20:00 +20°C° 0.9 mm 2 mps 734 mmHg 91%
21:00 +20°C° 0.6 mm 2 mps 734 mmHg 92%
22:00 +19°C° 0.6 mm 2 mps 734 mmHg 93%
23:00 +19°C° 0.6 mm 3 mps 734 mmHg 94%
Show more